This is the latest recevied weather packets stored in our database for station/object KC9GSD. If no packets are shown the sender has not sent any weather packets the latest 10 day(s).
| Time | Temp. | Humidity | Pressure | Rain* | Wind** | Luminosity | Snow |
|---|---|---|---|---|---|---|---|
| 1778357584 | 23.89° C | 64% | 1011.4 hPa | 0 mm | - | 587 W/m² | - |
| 1778357280 | 23.89° C | 65% | 1011.3 hPa | 0 mm | - | 640 W/m² | - |
| 1778356975 | 23.89° C | 65% | 1011.4 hPa | 0 mm | - | 753 W/m² | - |
| 1778356672 | 23.89° C | 68% | 1011.6 hPa | 0 mm | - | 694 W/m² | - |
| 1778356368 | 23.33° C | 72% | 1011.6 hPa | 0 mm | - | 804 W/m² | - |
| 1778356068 | 22.78° C | 68% | 1011.5 hPa | 0 mm | - | 667 W/m² | - |
| 1778355764 | 22.78° C | 66% | 1011.5 hPa | 0 mm | - | 371 W/m² | - |
| 1778355461 | 22.78° C | 65% | 1011.6 hPa | 0 mm | - | 642 W/m² | - |
| 1778355161 | 22.22° C | 70% | 1011.5 hPa | 0 mm | - | 445 W/m² | - |
| 1778354857 | 22.22° C | 73% | 1011.7 hPa | 0 mm | - | 335 W/m² | - |
| 1778354552 | 22.22° C | 72% | 1011.6 hPa | 0 mm | - | 330 W/m² | - |
| 1778354248 | 22.22° C | 67% | 1011.7 hPa | 0 mm | - | 384 W/m² | - |
| 1778353945 | 22.22° C | 71% | 1011.6 hPa | 0 mm | - | 336 W/m² | - |
| 1778353641 | 22.22° C | 73% | 1011.7 hPa | 0 mm | - | 307 W/m² | - |
| 1778353338 | 22.22° C | 70% | 1011.8 hPa | 0 mm | - | 359 W/m² | - |
| 1778353035 | 21.67° C | 71% | 1012 hPa | 0 mm | - | 388 W/m² | - |
| 1778352732 | 22.78° C | 70% | 1012 hPa | 0 mm | - | 379 W/m² | - |
| 1778352429 | 22.78° C | 66% | 1011.9 hPa | 0 mm | - | 459 W/m² | - |
| 1778352126 | 22.22° C | 67% | 1011.8 hPa | 0 mm | - | 506 W/m² | - |
| 1778351822 | 22.22° C | 68% | 1012.2 hPa | 0 mm | - | 461 W/m² | - |
| 1778351518 | 21.67° C | 68% | 1012 hPa | 0 mm | - | 413 W/m² | - |
| 1778351213 | 22.22° C | 65% | 1012.1 hPa | 0 mm | - | 391 W/m² | - |
| 1778350911 | 22.22° C | 70% | 1012.2 hPa | 0 mm | - | 364 W/m² | - |
| 1778350609 | 21.67° C | 70% | 1012.1 hPa | 0 mm | - | 425 W/m² | - |
| 1778350306 | 21.67° C | 68% | 1012.3 hPa | 0 mm | - | 352 W/m² | - |
* Rain latest hour (hover to see other rain measurements)
** Current wind speed in m/s (hover to see current wind gust speed)